Content
SEND FEEDBACK

Daily
Averages
Monthly
Summary
United States of America

UPI, GUAM


Home > North America > United States > Guam
Elevation: 53 feet     Latitude: 13 34N     Longitude: 144 55E

WEATHER
 
SELECT A DAY
Number of Records: 208,997;   Date Range: 1/1/95 - 7/26/14
 
SHARE

PRINT THIS DATA

[ ← Previous Day ]
WEATHER ALMANAC - DECEMBER 30, 2013
[ Next Day → ]
[ °C ]   °F
Weather ElementAverageHighLow
Temperature81.2 °F86 °F (12:54 pm)78.1 °F (1:54 am)
Dewpoint74.6 °F75.9 °F (1:54 am)73 °F (1:54 pm)
Humidity80.8 %93 % (1:54 am)66 % (12:55 pm)
Barometer29.87 in29.92 in (8:54 am)29.81 in (2:54 pm)
Wind Speed9.7 mph15 mph (9:54 am)
Wind Gust21.9 mph (7:54 am)
Weather ElementAverage
Visibility9.8 mi
Wind DirectionENE (62.8 °)

Weather ElementTotal
Precipitation---
Cooling Degree Days17.1 (Base 65)
Growing Degree Days32.1 (Base 50)
Averaged from 25 records on December 30, 2013
WEATHER CONDITIONS BREAKOUT
WIND DIRECTION BREAKOUT
WEATHER BY HOUR - DECEMBER 30, 2013
[ °C ]   °F
Local TimeTemperatureDewpointHumidityBarometerVisibilityWind DirectionWind SpeedGust SpeedPrecipitationEventsConditions
1:54 AM78.1 °F75.9 °F93 %29.85 in10.0 miNE (50°)4.6 mphOvercast
2:54 AM78.1 °F75.9 °F93 %29.84 in10.0 miNE (50°)4.6 mphOvercast
3:54 AM78.1 °F75.9 °F93 %29.83 in10.0 miNE (40°)5.8 mphOvercast
4:54 AM78.1 °F75.0 °F90 %29.84 in10.0 miENE (60°)6.9 mphPartly Cloudy
5:54 AM78.1 °F75.9 °F93 %29.85 in10.0 miENE (60°)5.8 mph0.00 inMostly Cloudy
6:54 AM78.1 °F75.9 °F93 %29.87 in10.0 miENE (60°)6.9 mphScattered Clouds
7:54 AM78.1 °F75.0 °F90 %29.91 in6.0 miENE (60°)13.8 mph21.9 mph0.00 inRainLight Rain
8:54 AM81.0 °F75.9 °F85 %29.92 in10.0 miENE (60°)10.4 mph0.00 inScattered Clouds
9:54 AM82.9 °F75.0 °F77 %29.91 in10.0 miENE (60°)15.0 mphMostly Cloudy
10:54 AM84.0 °F73.9 °F72 %29.90 in10.0 miENE (60°)13.8 mphScattered Clouds
11:54 AM84.0 °F73.9 °F72 %29.88 in10.0 miENE (70°)13.8 mph20.7 mphMostly Cloudy
12:54 PM86.0 °F75.0 °F70 %29.85 in10.0 miENE (60°)12.7 mphMostly Cloudy
12:55 PM86.0 °F73.4 °F66 %29.87 in10.0 miEast (80°)12.7 mphMostly Cloudy
12:56 PM86.0 °F73.4 °F66 %29.87 in10.0 miEast (80°)12.7 mphScattered Clouds
1:54 PM84.9 °F73.0 °F67 %29.83 in10.0 miEast (90°)11.5 mphMostly Cloudy
2:54 PM84.0 °F75.0 °F74 %29.81 in10.0 miENE (60°)10.4 mph0.00 inRainLight Rain
3:54 PM84.0 °F73.0 °F69 %29.82 in10.0 miEast (90°)11.5 mph0.00 inScattered Clouds
4:54 PM82.9 °F75.0 °F77 %29.83 in10.0 miEast (80°)11.5 mphPartly Cloudy
5:54 PM82.0 °F75.0 °F79 %29.85 in10.0 miENE (60°)11.5 mphPartly Cloudy
6:54 PM80.1 °F73.9 °F81 %29.86 in10.0 miENE (60°)9.2 mphPartly Cloudy
7:54 PM80.1 °F73.9 °F81 %29.88 in10.0 miENE (60°)8.1 mphPartly Cloudy
8:54 PM80.1 °F73.9 °F81 %29.89 in10.0 miENE (60°)8.1 mphPartly Cloudy
9:54 PM79.0 °F73.9 °F84 %29.90 in10.0 miENE (60°)8.1 mphPartly Cloudy
10:54 PM78.1 °F73.9 °F87 %29.90 in10.0 miNE (50°)6.9 mphPartly Cloudy
11:54 PM78.1 °F73.9 °F87 %29.88 in10.0 miNE (50°)5.8 mphPartly Cloudy
Hourly data recorded from PGUM, located miles away from Upi, Guam







STORIES FROM OUR PARTNERS